Home   Weather   Nottingham   Past weeks

Flag for United Kingdom Past Weather in Nottingham, England, United Kingdom — Yesterday and Last 2 Weeks

Now
46 °F

Rain. Partly cloudy.


Feels Like: 44 °F
Forecast: N/A
Wind: 6 mph from Northwest

Location: East Midlands

Current Time: Feb 22, 2017 at 9:57:43 pm

Latest Report: Feb 22, 2017 at 9:20 pm


Visibility: 2 mi

Pressure: 29.62 "Hg

Humidity: 93%

Dew Point: 45 °F

Location of NottinghamLocation

Past Weather in Nottingham — Graph

°F

Nottingham Temperature Yesterday

Maximum temperature yesterday: 54 °F (at 12:20 pm)
Minimum temperature yesterday: 45 °F (at 7:20 am)
Average temperature yesterday: 51 °F

High & Low Weather Summary for the Past Weeks

 TemperatureHumidityPressure
High59 °F (Feb 20, 1:50 pm)100% (Feb 8, 8:20 am)30.45 "Hg (Feb 8, 8:20 am)
Low32 °F (Feb 9, 7:20 pm)67% (Feb 17, 2:50 pm)29.62 "Hg (Feb 22, 3:50 am)
Average43 °F89%30.19 "Hg
* Reported Feb 7 8:20 pm — Feb 22 8:50 pm, Nottingham, Weather by CustomWeather, © 2017

Note: Actual official high and low records may vary slightly from our data, if they occured in-between our weather recording intervals... More about our weather records

Advertising

Nottingham Weather History for the Previous 24 Hours

Scroll right to see more
 ConditionsComfort  
Time TempWeatherWind HumidityBarometerVisibility
8:50 pm
Wed, Feb 22
46 °FRain. Passing clouds.9 mph93%29.65 "Hg3 mi
8:20 pm48 °FLight rain. Passing clouds.7 mph87%29.65 "Hg4 mi
7:50 pm48 °FPartly cloudy.7 mph82%29.65 "HgN/A
7:20 pm48 °FPassing clouds.8 mph82%29.65 "HgN/A
6:50 pm48 °FPassing clouds.8 mph82%29.65 "HgN/A
6:20 pm50 °FPassing clouds.8 mph76%29.65 "HgN/A
5:50 pm50 °FPassing clouds.9 mph82%29.65 "HgN/A
5:20 pm50 °FPartly sunny.8 mph82%29.65 "HgN/A
4:50 pm50 °FPartly sunny.14 mph76%29.65 "HgN/A
4:20 pm50 °FPartly sunny.16 mph76%29.65 "HgN/A
3:50 pm50 °FScattered clouds.17 mph76%29.65 "HgN/A
3:20 pm52 °FScattered clouds.20 mph72%29.65 "HgN/A
2:50 pm52 °FScattered clouds.22 mph72%29.65 "HgN/A
2:20 pm52 °FScattered clouds.24 mph72%29.65 "HgN/A
1:50 pm54 °FScattered clouds.25 mph67%29.68 "HgN/A
1:20 pm54 °FScattered clouds.26 mph67%29.68 "HgN/A
12:50 pm54 °FScattered clouds.26 mph72%29.65 "HgN/A
12:20 pm52 °FScattered clouds.25 mph72%29.68 "HgN/A
11:50 am50 °FPassing clouds.25 mph82%29.68 "HgN/A
11:20 am50 °FScattered clouds.25 mph76%29.68 "HgN/A
10:50 am50 °FPassing clouds.25 mph76%29.68 "HgN/A
10:20 am48 °FScattered clouds.24 mph82%29.68 "HgN/A
9:50 am48 °FPartly sunny.20 mph82%29.68 "HgN/A
9:20 am48 °FPartly sunny.21 mph82%29.65 "HgN/A
8:50 am48 °FScattered clouds.20 mph87%29.68 "HgN/A
8:20 am46 °FBroken clouds.18 mph93%29.68 "HgN/A
7:50 am48 °FBroken clouds.21 mph87%29.68 "HgN/A
7:20 am48 °FLight rain. Partly sunny.22 mph94%29.65 "HgN/A
6:50 am52 °FPassing clouds.28 mph88%29.62 "HgN/A
6:20 am52 °FPassing clouds.33 mph82%29.62 "HgN/A
5:50 am52 °FPartly cloudy.32 mph82%29.62 "HgN/A
5:20 am52 °FPassing clouds.30 mph82%29.62 "HgN/A
4:50 am52 °FPartly cloudy.28 mph82%29.62 "HgN/A
4:20 am54 °FPassing clouds.28 mph77%29.62 "HgN/A
3:50 am54 °FPassing clouds.32 mph77%29.62 "HgN/A
3:20 am54 °FPartly cloudy.31 mph82%29.65 "HgN/A
2:50 am54 °FPassing clouds.33 mph82%29.65 "HgN/A
2:20 am54 °FPartly cloudy.33 mph82%29.65 "HgN/A
1:50 am54 °FLight rain. Partly cloudy.31 mph82%29.65 "HgN/A
1:20 am54 °FRain. Passing clouds.26 mph82%29.65 "HgN/A
12:50 am52 °FPassing clouds.21 mph88%29.68 "HgN/A
12:20 am52 °FPassing clouds.23 mph88%29.68 "HgN/A
11:50 pm
Tue, Feb 21
52 °FPassing clouds.22 mph88%29.68 "HgN/A
11:20 pm52 °FPassing clouds.23 mph88%29.71 "HgN/A
10:50 pm52 °FPassing clouds.22 mph82%29.71 "HgN/A
10:20 pm52 °FPassing clouds.23 mph82%29.71 "HgN/A
9:50 pm52 °FPassing clouds.23 mph82%29.71 "HgN/A
9:20 pm52 °FPassing clouds.20 mph82%29.74 "HgN/A
Weather by CustomWeather, © 2017

See weather overviewHow to use our weather pages